Weather History for Tracy, MN

Change the Weather History Date:

Friday, April 5, 2013

  Actual Average (KMML) Record (KMML)
Temperature  
Mean Temperature 35 °F -  
Max Temperature 45 °F 50 °F 85 °F (1991)
Min Temperature 25 °F 30 °F 14 °F (1979)
Degree Days  
Heating Degree Days 30    
Moisture  
Dew Point 26 °F    
Average Humidity 71    
Maximum Humidity 91    
Minimum Humidity 47    
Precipitation  
Precipitation 0.00 in - - ()
Sea Level Pressure  
Sea Level Pressure 30.03 in    
Wind  
Wind Speed 10 mph (ESE)    
Max Wind Speed 24 mph    
Max Gust Speed 34 mph    
Visibility 10 miles    
Events      
Averages and records for this station are not official NWS values.
T = Trace of Precipitation, MM = Missing Value Source: NWS Daily Summary

Daily Weather History Graph

Daily Weather History Graph

Search for Another Location

Airport:

Trip Planner

Search our weather history database for the weather conditions in past years. The results will help you decide how hot, cold, wet, or windy it might be!

Date:

Astronomy

Apr. 05, 2013 Rise Set
Actual Time 6:55 AM CDT 7:54 PM CDT
Civil Twilight 6:26 AM CDT 8:24 PM CDT
Nautical Twilight 5:51 AM CDT 8:59 PM CDT
Astronomical Twilight 5:14 AM CDT 9:36 PM CDT
Moon 4:14 AM CDT (4/5) 3:10 PM CDT (4/5)
Length of Visible Light 13h 58m
Length of Day
12h 59m
Waning Crescent, 23% of the Moon is Illuminated
Apr 5
Waning Crescent
Apr 10
New
Apr 18
First Quarter
Apr 25
Full
May 2
Last Quarter

Hourly Weather History & Observations

Time (CDT) Temp. Windchill Dew Point Humidity Pressure Visibility Wind Dir Wind Speed Gust Speed Precip Events Conditions
12:18 AM 27.0 °F 18.0 °F 21.2 °F 79% 30.21 in 10.0 mi NNW 9.2 mph - N/A   Scattered Clouds
12:37 AM 26.6 °F 17.5 °F 21.4 °F 81% 30.21 in 10.0 mi North 9.2 mph - N/A   Scattered Clouds
12:58 AM 26.6 °F 17.5 °F 21.7 °F 82% 30.21 in 10.0 mi NNW 9.2 mph - N/A   Scattered Clouds
1:18 AM 26.2 °F 18.6 °F 21.9 °F 84% 30.21 in 10.0 mi NNW 6.9 mph - N/A   Scattered Clouds
1:37 AM 26.2 °F 17.8 °F 21.9 °F 84% 30.21 in 10.0 mi NNW 8.1 mph - N/A   Overcast
1:57 AM 25.9 °F 18.2 °F 21.6 °F 84% 30.22 in 10.0 mi NNW 6.9 mph - N/A   Mostly Cloudy
2:17 AM 25.3 °F 17.6 °F 21.0 °F 84% 30.21 in 10.0 mi NNW 6.9 mph - N/A   Scattered Clouds
2:38 AM 25.2 °F 19.5 °F 21.0 °F 84% 30.21 in 10.0 mi NNW 4.6 mph - N/A   Scattered Clouds
2:58 AM 25.7 °F 19.0 °F 21.2 °F 83% 30.22 in 10.0 mi NW 5.8 mph - N/A   Mostly Cloudy
3:17 AM 25.7 °F 17.1 °F 21.6 °F 84% 30.22 in 10.0 mi NNW 8.1 mph - N/A   Overcast
3:38 AM 25.7 °F 18.0 °F 21.6 °F 84% 30.21 in 10.0 mi NNW 6.9 mph - N/A   Overcast
3:57 AM 25.7 °F 17.1 °F 21.7 °F 85% 30.20 in 10.0 mi North 8.1 mph - N/A   Overcast
4:18 AM 25.9 °F 20.3 °F 21.7 °F 84% 30.21 in 10.0 mi NNW 4.6 mph - N/A   Overcast
4:37 AM 26.1 °F 21.9 °F 21.9 °F 84% 30.20 in 10.0 mi North 3.5 mph - N/A   Overcast
4:57 AM 25.7 °F - 21.9 °F 86% 30.20 in 10.0 mi Calm Calm - N/A   Overcast
5:18 AM 25.5 °F - 22.5 °F 88% 30.20 in 10.0 mi Calm Calm - N/A   Mostly Cloudy
5:38 AM 25.3 °F - 22.6 °F 89% 30.20 in 10.0 mi Calm Calm - N/A   Overcast
5:57 AM 25.5 °F - 23.0 °F 90% 30.20 in 10.0 mi Calm Calm - N/A   Overcast
6:17 AM 25.2 °F - 23.0 °F 91% 30.20 in 10.0 mi Calm Calm - N/A   Overcast
7:37 AM 26.6 °F - 23.9 °F 90% 30.17 in 10.0 mi Calm Calm - N/A   Overcast
7:57 AM 27.3 °F - 23.9 °F 87% 30.19 in 10.0 mi Calm Calm - N/A   Overcast
8:18 AM 27.9 °F - 23.7 °F 84% 30.19 in 10.0 mi Calm Calm - N/A   Overcast
8:37 AM 28.2 °F 20.2 °F 23.5 °F 83% 30.18 in 10.0 mi East 8.1 mph - N/A   Overcast
8:57 AM 28.8 °F 20.9 °F 23.2 °F 80% 30.17 in 10.0 mi SE 8.1 mph - N/A   Overcast
9:18 AM 29.3 °F 21.5 °F 23.0 °F 77% 30.17 in 10.0 mi SE 8.1 mph - N/A   Overcast
9:38 AM 30.2 °F 20.8 °F 23.0 °F 75% 30.16 in 10.0 mi SE 11.5 mph - N/A   Overcast
9:57 AM 30.9 °F 21.7 °F 23.0 °F 72% 30.16 in 10.0 mi ESE 11.5 mph - N/A   Overcast
10:17 AM 32.0 °F 23.0 °F 23.0 °F 69% 30.14 in 10.0 mi SE 11.5 mph - N/A   Overcast
10:37 AM 32.5 °F 22.7 °F 22.6 °F 67% 30.14 in 10.0 mi SE 13.8 mph - N/A   Overcast
10:57 AM 33.8 °F 23.9 °F 22.1 °F 62% 30.12 in 10.0 mi SE 15.0 mph - N/A   Overcast
11:17 AM 34.7 °F 24.3 °F 22.1 °F 60% 30.11 in 10.0 mi SE 17.3 mph 20.7 mph N/A   Mostly Cloudy
11:37 AM 36.1 °F 27.3 °F 22.1 °F 57% 30.11 in 10.0 mi SE 13.8 mph 18.4 mph N/A   Scattered Clouds
11:58 AM 37.4 °F 29.3 °F 22.8 °F 56% 30.11 in 10.0 mi SE 12.7 mph - N/A   Scattered Clouds
12:17 PM 38.3 °F 30.1 °F 22.5 °F 53% 30.12 in 10.0 mi SE 13.8 mph 18.4 mph N/A   Overcast
12:38 PM 38.7 °F 30.9 °F 23.4 °F 54% 30.11 in 10.0 mi SE 12.7 mph - N/A   Overcast
12:57 PM 40.6 °F 32.0 °F 23.9 °F 51% 30.07 in 10.0 mi SE 17.3 mph - N/A   Overcast
1:18 PM 43.0 °F 34.8 °F 24.6 °F 48% 30.05 in 10.0 mi SSE 18.4 mph 25.3 mph N/A   Mostly Cloudy
1:38 PM 42.4 °F 33.1 °F 23.4 °F 47% 30.03 in 10.0 mi SE 23.0 mph 27.6 mph N/A   Scattered Clouds
1:58 PM 41.9 °F 33.7 °F 24.1 °F 49% 30.03 in 10.0 mi SE 17.3 mph 23.0 mph N/A   Mostly Cloudy
2:18 PM 42.8 °F 34.5 °F 24.4 °F 48% 30.01 in 10.0 mi SE 18.4 mph 26.5 mph N/A   Overcast
2:38 PM 43.0 °F 34.8 °F 24.6 °F 48% 30.00 in 10.0 mi SSE 18.4 mph 24.2 mph N/A   Overcast
2:57 PM 43.2 °F 34.5 °F 25.5 °F 50% 29.98 in 10.0 mi SE 20.7 mph 28.8 mph N/A   Overcast
3:17 PM 43.3 °F 34.2 °F 25.5 °F 49% 29.95 in 10.0 mi SE 23.0 mph 31.1 mph N/A   Overcast
3:38 PM 43.0 °F 34.2 °F 26.6 °F 52% 29.94 in 10.0 mi SE 20.7 mph 27.6 mph N/A   Overcast
3:58 PM 42.8 °F 33.5 °F 25.7 °F 51% 29.92 in 10.0 mi SE 23.0 mph 31.1 mph N/A   Overcast
4:18 PM 43.0 °F 33.5 °F 27.1 °F 54% 29.87 in 10.0 mi SE 24.2 mph 34.5 mph N/A   Overcast
4:37 PM 43.7 °F 35.7 °F 27.7 °F 53% 29.89 in 10.0 mi SE 18.4 mph 28.8 mph N/A   Mostly Cloudy
4:57 PM 43.9 °F 35.9 °F 29.3 °F 57% 29.88 in 10.0 mi SE 18.4 mph 31.1 mph N/A   Mostly Cloudy
5:18 PM 44.4 °F 37.2 °F 29.5 °F 56% 29.89 in 10.0 mi SE 16.1 mph 26.5 mph N/A   Mostly Cloudy
5:38 PM 44.8 °F 38.0 °F 30.9 °F 58% 29.88 in 10.0 mi SE 15.0 mph 23.0 mph N/A   Overcast
5:58 PM 45.5 °F 37.8 °F 30.9 °F 57% 29.87 in 10.0 mi SE 19.6 mph 24.2 mph N/A   Overcast
6:18 PM 45.5 °F 38.6 °F 31.3 °F 58% 29.87 in 10.0 mi SE 16.1 mph 21.9 mph N/A   Scattered Clouds
6:38 PM 45.1 °F 38.4 °F 31.6 °F 59% 29.86 in 10.0 mi SE 15.0 mph - N/A   Clear
6:57 PM 44.6 °F 38.1 °F 31.6 °F 60% 29.85 in 10.0 mi ESE 13.8 mph 19.6 mph N/A   Clear
7:17 PM 44.1 °F 36.8 °F 31.8 °F 62% 29.84 in 10.0 mi ESE 16.1 mph 23.0 mph N/A   Clear
7:38 PM 43.2 °F 35.9 °F 31.6 °F 64% 29.83 in 10.0 mi ESE 15.0 mph 20.7 mph N/A   Clear
7:57 PM 42.3 °F 34.4 °F 31.6 °F 66% 29.83 in 10.0 mi ESE 16.1 mph 20.7 mph N/A   Clear
8:17 PM 41.4 °F 33.6 °F 31.6 °F 68% 29.82 in 10.0 mi ESE 15.0 mph 19.6 mph N/A   Clear
8:37 PM 40.8 °F 32.9 °F 31.3 °F 69% 29.81 in 10.0 mi East 15.0 mph 19.6 mph N/A   Clear
8:58 PM 36.7 °F 28.0 °F 31.5 °F 81% 29.80 in 10.0 mi ESE 13.8 mph - N/A   Clear
9:18 PM 36.5 °F 27.4 °F 31.5 °F 82% 29.79 in 10.0 mi ESE 15.0 mph 20.7 mph N/A   Clear
9:38 PM 36.0 °F 26.3 °F 31.5 °F 84% 29.79 in 10.0 mi ESE 16.1 mph - N/A   Clear
9:58 PM 35.8 °F 26.1 °F 31.6 °F 85% 29.78 in 10.0 mi ESE 16.1 mph - N/A   Clear
10:18 PM 35.8 °F 26.5 °F 31.6 °F 85% 29.77 in 10.0 mi ESE 15.0 mph - N/A   Clear
10:38 PM 35.8 °F 26.9 °F 31.8 °F 86% 29.76 in 10.0 mi ESE 13.8 mph 20.7 mph N/A   Scattered Clouds
10:57 PM 36.0 °F 28.5 °F 32.0 °F 86% 29.75 in 10.0 mi ESE 10.4 mph - N/A   Scattered Clouds
11:17 PM 35.8 °F 28.3 °F 32.0 °F 86% 29.74 in 10.0 mi ESE 10.4 mph - N/A   Scattered Clouds
11:38 PM 36.3 °F 28.9 °F 32.0 °F 84% 29.72 in 10.0 mi SE 10.4 mph - N/A   Clear
11:57 PM 38.3 °F 31.9 °F 32.0 °F 78% 29.71 in 10.0 mi SE 9.2 mph - N/A   Scattered Clouds